When you browse on this site, cookies collect data to enhance your experience and personalize the content and advertising you see.
Visit our Privacy Policy to learn more. By continuing to use the site, you agree to this use of cookies and data.
  • In Sweden
  • List of Countries
  • For 7 days
  • Water Temperature
  • Satellite Maps
  • Weather Map
  • Weather Widgets
  • user-avatar
    Login

    Hourly Weather Golden Sands

    Today, 21 November, Wednesday

    Time Temperature Precipitation Wind Pressure Humidity
    00:00 +5°C° 0.4 mm 6 mps 764 mmHg 89%
    01:00 +7°C° 0.4 mm 6 mps 764 mmHg 90%
    02:00 +7°C° 0.4 mm 6 mps 763 mmHg 91%
    03:00 +7°C° 0.4 mm 6 mps 763 mmHg 92%
    04:00 +7°C° 0.4 mm 6 mps 762 mmHg 93%
    05:00 +8°C° 0.4 mm 6 mps 762 mmHg 93%
    06:00 +8°C° 0.6 mm 7 mps 761 mmHg 93%
    07:00 +8°C° 0.6 mm 7 mps 761 mmHg 93%
    08:00 +7°C° 0.6 mm 8 mps 761 mmHg 93%
    09:00 +7°C° 0.9 mm 8 mps 761 mmHg 93%
    10:00 +9°C° 0.9 mm 8 mps 760 mmHg 93%
    11:00 +9°C° 0.9 mm 8 mps 760 mmHg 93%
    12:00 +8°C° 0.9 mm 9 mps 760 mmHg 93%
    13:00 +8°C° 0.9 mm 9 mps 760 mmHg 92%
    14:00 +8°C° 0.9 mm 9 mps 759 mmHg 92%
    15:00 +8°C° 1.1 mm 9 mps 759 mmHg 92%
    16:00 +8°C° 1.1 mm 9 mps 759 mmHg 92%
    17:00 +8°C° 1.1 mm 10 mps 759 mmHg 92%
    18:00 +8°C° 0.8 mm 10 mps 759 mmHg 91%
    19:00 +8°C° 0.8 mm 10 mps 760 mmHg 90%
    20:00 +8°C° 0.8 mm 10 mps 760 mmHg 89%
    21:00 +8°C° 0.6 mm 10 mps 760 mmHg 89%
    22:00 +7°C° 0.6 mm 10 mps 760 mmHg 90%
    23:00 +7°C° 0.6 mm 9 mps 760 mmHg 90%

    Tomorrow, 22 November, Thursday

    Time Temperature Precipitation Wind Pressure Humidity
    00:00 +7°C° 0.7 mm 9 mps 761 mmHg 90%
    01:00 +7°C° 0.7 mm 10 mps 761 mmHg 89%
    02:00 +7°C° 0.7 mm 10 mps 761 mmHg 89%
    03:00 +7°C° 0.6 mm 10 mps 761 mmHg 89%
    04:00 +7°C° 0.6 mm 10 mps 761 mmHg 88%
    05:00 +7°C° 0.6 mm 11 mps 761 mmHg 88%
    06:00 +6°C° 0.3 mm 10 mps 762 mmHg 87%
    07:00 +6°C° 0.3 mm 10 mps 762 mmHg 86%
    08:00 +6°C° 0.3 mm 10 mps 763 mmHg 85%
    09:00 +6°C° 0.2 mm 10 mps 763 mmHg 84%
    10:00 +6°C° 0.2 mm 10 mps 764 mmHg 83%
    11:00 +6°C° 0.2 mm 10 mps 764 mmHg 82%
    12:00 +6°C° 0.1 mm 9 mps 764 mmHg 80%
    13:00 +6°C° 0.1 mm 9 mps 765 mmHg 77%
    14:00 +6°C° 0.1 mm 9 mps 765 mmHg 75%
    15:00 +6°C° 0 mm 9 mps 765 mmHg 75%
    16:00 +5°C° 0 mm 8 mps 765 mmHg 76%
    17:00 +5°C° 0 mm 8 mps 766 mmHg 76%
    18:00 +4°C° 0 mm 8 mps 766 mmHg 74%
    19:00 +4°C° 0 mm 8 mps 767 mmHg 73%
    20:00 +3°C° 0 mm 7 mps 767 mmHg 72%
    21:00 +3°C° 0 mm 7 mps 767 mmHg 72%
    22:00 +2°C° 0 mm 7 mps 767 mmHg 72%
    23:00 +2°C° 0 mm 6 mps 768 mmHg 72%

    Day after tomorrow, 23 November, Friday

    Time Temperature Precipitation Wind Pressure Humidity
    00:00 +1°C° 0 mm 6 mps 768 mmHg 72%
    01:00 +1°C° 0 mm 6 mps 768 mmHg 72%
    02:00 -1°C° 0 mm 6 mps 768 mmHg 73%
    03:00 -1°C° 0 mm 6 mps 768 mmHg 74%
    04:00 -1°C° 0 mm 6 mps 768 mmHg 74%
    05:00 -2°C° 0 mm 6 mps 768 mmHg 75%
    06:00 -2°C° 0 mm 6 mps 769 mmHg 74%
    07:00 -2°C° 0 mm 6 mps 769 mmHg 74%
    08:00 -2°C° 0 mm 6 mps 770 mmHg 74%
    09:00 0°C° 0 mm 5 mps 770 mmHg 68%
    10:00 +1°C° 0 mm 5 mps 770 mmHg 62%
    11:00 +3°C° 0 mm 5 mps 770 mmHg 56%
    12:00 +3°C° 0 mm 5 mps 770 mmHg 54%
    13:00 +5°C° 0 mm 5 mps 770 mmHg 52%
    14:00 +6°C° 0 mm 5 mps 770 mmHg 50%
    15:00 +5°C° 0 mm 5 mps 770 mmHg 53%
    16:00 +3°C° 0 mm 5 mps 770 mmHg 56%
    17:00 +2°C° 0 mm 5 mps 770 mmHg 59%
    18:00 +2°C° 0 mm 5 mps 771 mmHg 60%
    19:00 +3°C° 0 mm 4 mps 771 mmHg 61%
    20:00 +1°C° 0 mm 4 mps 771 mmHg 61%
    21:00 +1°C° 0 mm 4 mps 771 mmHg 62%
    22:00 +1°C° 0 mm 4 mps 771 mmHg 63%
    23:00 +1°C° 0 mm 4 mps 771 mmHg 63%

    24 November, Saturday

    Time Temperature Precipitation Wind Pressure Humidity
    00:00 +1°C° 0 mm 4 mps 771 mmHg 64%
    01:00 +1°C° 0 mm 4 mps 771 mmHg 65%
    02:00 +1°C° 0 mm 4 mps 771 mmHg 66%
    03:00 +1°C° 0 mm 4 mps 770 mmHg 67%
    04:00 0°C° 0 mm 4 mps 770 mmHg 68%
    05:00 0°C° 0 mm 4 mps 770 mmHg 70%
    06:00 +1°C° 0 mm 4 mps 770 mmHg 70%
    07:00 +2°C° 0 mm 3 mps 770 mmHg 71%
    08:00 +2°C° 0 mm 3 mps 770 mmHg 72%
    09:00 +3°C° 0 mm 3 mps 770 mmHg 70%
    10:00 +5°C° 0 mm 3 mps 770 mmHg 68%
    11:00 +7°C° 0 mm 2 mps 769 mmHg 66%
    12:00 +8°C° 0 mm 2 mps 769 mmHg 65%
    13:00 +8°C° 0 mm 2 mps 768 mmHg 65%
    14:00 +9°C° 0 mm 2 mps 768 mmHg 64%
    15:00 +8°C° 0 mm 2 mps 767 mmHg 69%
    16:00 +7°C° 0 mm 2 mps 767 mmHg 74%
    17:00 +7°C° 0 mm 1 mps 767 mmHg 79%
    18:00 +7°C° 0 mm 1 mps 767 mmHg 80%
    19:00 +7°C° 0 mm 1 mps 767 mmHg 82%
    20:00 +7°C° 0 mm 1 mps 767 mmHg 84%
    21:00 +7°C° 0 mm 1 mps 766 mmHg 84%
    22:00 +6°C° 0 mm 1 mps 766 mmHg 85%
    23:00 +6°C° 0 mm 1 mps 766 mmHg 85%

    25 November, Sunday

    Time Temperature Precipitation Wind Pressure Humidity
    00:00 +5°C° 0 mm 2 mps 765 mmHg 86%
    01:00 +5°C° 0 mm 2 mps 765 mmHg 86%
    02:00 +5°C° 0 mm 2 mps 765 mmHg 86%
    03:00 +5°C° 0 mm 2 mps 765 mmHg 86%
    04:00 +5°C° 0 mm 2 mps 764 mmHg 86%
    05:00 +5°C° 0 mm 2 mps 764 mmHg 86%
    06:00 +5°C° 0 mm 2 mps 764 mmHg 86%
    07:00 +4°C° 0 mm 3 mps 764 mmHg 86%
    08:00 +5°C° 0 mm 3 mps 764 mmHg 85%
    09:00 +7°C° 0 mm 3 mps 764 mmHg 79%
    10:00 +8°C° 0 mm 3 mps 764 mmHg 73%
    11:00 +9°C° 0 mm 3 mps 763 mmHg 68%
    12:00 +8°C° 0 mm 4 mps 763 mmHg 65%
    13:00 +10°C° 0 mm 4 mps 762 mmHg 62%
    14:00 +10°C° 0 mm 4 mps 762 mmHg 60%
    15:00 +10°C° 0 mm 4 mps 762 mmHg 64%
    16:00 +8°C° 0 mm 4 mps 761 mmHg 69%
    17:00 +7°C° 0 mm 4 mps 761 mmHg 73%
    18:00 +7°C° 0 mm 4 mps 761 mmHg 75%
    19:00 +7°C° 0 mm 4 mps 761 mmHg 76%
    20:00 +7°C° 0 mm 4 mps 761 mmHg 78%
    21:00 +7°C° 0 mm 4 mps 761 mmHg 79%
    22:00 +7°C° 0 mm 4 mps 760 mmHg 79%
    23:00 +7°C° 0 mm 4 mps 760 mmHg 80%

    26 November, Monday

    Time Temperature Precipitation Wind Pressure Humidity
    00:00 +7°C° 0 mm 4 mps 760 mmHg 80%
    01:00 +7°C° 0 mm 4 mps 759 mmHg 80%
    02:00 +7°C° 0 mm 4 mps 759 mmHg 80%
    03:00 +7°C° 0 mm 4 mps 759 mmHg 82%
    04:00 +7°C° 0 mm 5 mps 758 mmHg 83%
    05:00 +7°C° 0 mm 5 mps 758 mmHg 85%
    06:00 +7°C° 0 mm 5 mps 758 mmHg 86%
    07:00 +7°C° 0 mm 5 mps 758 mmHg 87%
    08:00 +7°C° 0 mm 6 mps 758 mmHg 89%
    09:00 +8°C° 0 mm 6 mps 757 mmHg 86%
    10:00 +9°C° 0 mm 6 mps 757 mmHg 83%
    11:00 +10°C° 0 mm 7 mps 757 mmHg 80%
    12:00 +10°C° 0.6 mm 6 mps 756 mmHg 83%
    13:00 +10°C° 0.6 mm 6 mps 756 mmHg 87%
    14:00 +10°C° 0.6 mm 6 mps 755 mmHg 91%
    15:00 +10°C° 1.1 mm 6 mps 755 mmHg 92%
    16:00 +10°C° 1.1 mm 6 mps 755 mmHg 93%
    17:00 +10°C° 1.1 mm 6 mps 755 mmHg 94%
    18:00 +10°C° 0.9 mm 6 mps 755 mmHg 94%
    19:00 +10°C° 0.9 mm 6 mps 754 mmHg 95%
    20:00 +10°C° 0.9 mm 7 mps 754 mmHg 95%
    21:00 +10°C° 0.7 mm 6 mps 754 mmHg 94%
    22:00 +9°C° 0.7 mm 6 mps 754 mmHg 93%
    23:00 +8°C° 0.7 mm 5 mps 754 mmHg 92%
    Show more